Time,TemperatureF,DewpointF,PressureIn,WindDirection,WindDirectionDegrees,WindSpeedMPH,WindSpeedGustMPH,Humidity,HourlyPrecipIn,Conditions,Clouds,dailyrainin,SoftwareType,DateUTC
2013-07-26 00:01:00,53.0,51.0,30.02,SSW,203,3.0,3.0,92,0.00,,,0.00,,2013-07-26 07:01:00,
2013-07-26 00:32:00,53.0,50.0,30.02,SW,225,2.0,4.0,91,0.00,,,0.00,,2013-07-26 07:32:00,
2013-07-26 00:43:00,53.0,50.0,30.02,SSW,203,4.0,4.0,91,0.00,,,0.00,,2013-07-26 07:43:00,
2013-07-26 00:52:00,53.0,50.0,30.02,SSW,203,1.0,4.0,91,0.00,,,0.00,,2013-07-26 07:52:00,
2013-07-26 01:01:00,53.0,50.0,30.02,SSW,203,4.0,4.0,91,0.00,,,0.00,,2013-07-26 08:01:00,
2013-07-26 01:12:00,53.0,50.0,30.02,SSW,203,1.0,4.0,91,0.00,,,0.00,,2013-07-26 08:12:00,
2013-07-26 01:32:00,53.0,51.0,30.02,SW,225,4.0,6.0,92,0.00,,,0.00,,2013-07-26 08:32:00,
2013-07-26 01:52:00,53.0,51.0,30.02,SSW,203,3.0,3.0,92,0.00,,,0.00,,2013-07-26 08:52:00,
2013-07-26 02:02:00,53.0,51.0,30.02,SW,225,3.0,5.0,92,0.00,,,0.00,,2013-07-26 09:02:00,
2013-07-26 02:12:00,53.0,51.0,30.02,SW,225,3.0,8.0,92,0.00,,,0.00,,2013-07-26 09:12:00,
2013-07-26 02:32:00,53.0,51.0,30.02,SW,225,6.0,6.0,92,0.00,,,0.00,,2013-07-26 09:32:00,
2013-07-26 02:43:00,53.0,51.0,30.02,SSW,203,5.0,5.0,92,0.00,,,0.00,,2013-07-26 09:43:00,
2013-07-26 02:52:00,53.0,51.0,30.02,WSW,248,4.0,5.0,92,0.00,,,0.00,,2013-07-26 09:52:00,
2013-07-26 03:02:00,53.0,51.0,30.02,SW,225,8.0,8.0,93,0.00,,,0.00,,2013-07-26 10:02:00,
2013-07-26 03:11:00,53.0,51.0,30.02,SW,225,5.0,8.0,93,0.00,,,0.00,,2013-07-26 10:11:00,
2013-07-26 03:22:00,53.0,51.0,30.02,SSW,203,7.0,7.0,92,0.00,,,0.00,,2013-07-26 10:22:00,
2013-07-26 03:32:00,53.0,51.0,30.02,SW,225,3.0,8.0,93,0.00,,,0.00,,2013-07-26 10:32:00,
2013-07-26 03:42:00,53.0,51.0,30.02,WSW,248,4.0,7.0,93,0.00,,,0.00,,2013-07-26 10:42:00,
2013-07-26 03:52:00,53.0,51.0,30.02,WSW,248,3.0,4.0,92,0.00,,,0.00,,2013-07-26 10:52:00,
2013-07-26 04:01:00,53.0,51.0,30.02,West,270,2.0,2.0,93,0.00,,,0.00,,2013-07-26 11:01:00,
2013-07-26 04:11:00,53.0,51.0,30.02,SW,225,4.0,6.0,92,0.00,,,0.00,,2013-07-26 11:11:00,
2013-07-26 04:32:00,53.0,51.0,30.02,SW,225,6.0,6.0,93,0.00,,,0.00,,2013-07-26 11:32:00,
2013-07-26 04:43:00,53.0,51.0,30.02,SSW,203,4.0,7.0,93,0.00,,,0.00,,2013-07-26 11:43:00,
2013-07-26 04:52:00,53.0,51.0,30.02,South,180,2.0,3.0,93,0.00,,,0.00,,2013-07-26 11:52:00,
2013-07-26 05:01:00,53.0,51.0,30.02,SW,225,5.0,5.0,93,0.00,,,0.00,,2013-07-26 12:01:00,
2013-07-26 05:12:00,53.0,51.0,30.02,WSW,248,6.0,8.0,93,0.00,,,0.00,,2013-07-26 12:12:00,
2013-07-26 05:33:00,53.0,51.0,30.05,SW,225,4.0,4.0,93,0.00,,,0.00,,2013-07-26 12:33:00,
2013-07-26 05:43:00,52.0,50.0,30.05,WSW,248,5.0,7.0,93,0.00,,,0.00,,2013-07-26 12:43:00,
2013-07-26 05:53:00,52.0,50.0,30.05,SW,225,4.0,6.0,93,0.00,,,0.00,,2013-07-26 12:53:00,
2013-07-26 06:32:00,53.0,51.0,30.05,SW,225,4.0,4.0,93,0.00,,,0.00,,2013-07-26 13:32:00,
2013-07-26 06:43:00,53.0,51.0,30.05,SW,225,3.0,8.0,93,0.00,,,0.00,,2013-07-26 13:43:00,
2013-07-26 07:02:00,53.0,51.0,30.05,SW,225,6.0,6.0,93,0.00,,,0.00,,2013-07-26 14:02:00,
2013-07-26 07:11:00,53.0,51.0,30.08,WSW,248,6.0,6.0,93,0.00,,,0.00,,2013-07-26 14:11:00,
2013-07-26 07:43:00,53.0,51.0,30.08,SW,225,8.0,8.0,92,0.00,,,0.00,,2013-07-26 14:43:00,
2013-07-26 07:53:00,53.0,51.0,30.08,SW,225,4.0,8.0,92,0.00,,,0.00,,2013-07-26 14:53:00,
2013-07-26 08:32:00,53.0,51.0,30.08,WSW,248,3.0,4.0,92,0.00,,,0.00,,2013-07-26 15:32:00,
2013-07-26 08:43:00,53.0,50.0,30.08,SSW,203,4.0,4.0,91,0.00,,,0.00,,2013-07-26 15:43:00,
2013-07-26 08:53:00,54.0,51.0,30.11,SSW,203,4.0,4.0,90,0.00,,,0.00,,2013-07-26 15:53:00,
2013-07-26 09:14:00,54.0,51.0,30.11,SSE,158,13.0,13.0,88,0.00,,,0.00,,2013-07-26 16:14:00,
2013-07-26 09:43:00,55.0,51.0,30.11,SW,225,2.0,4.0,86,0.00,,,0.00,,2013-07-26 16:43:00,
2013-07-26 10:33:00,56.0,50.0,30.11,SSW,203,4.0,4.0,81,0.00,,,0.00,,2013-07-26 17:33:00,
2013-07-26 10:43:00,57.0,51.0,30.11,SSW,203,8.0,8.0,80,0.00,,,0.00,,2013-07-26 17:43:00,
2013-07-26 10:52:00,56.0,50.0,30.11,SSW,203,6.0,8.0,80,0.00,,,0.00,,2013-07-26 17:52:00,
2013-07-26 11:02:00,57.0,51.0,30.11,SE,135,4.0,4.0,80,0.00,,,0.00,,2013-07-26 18:02:00,
2013-07-26 11:32:00,56.0,50.0,30.11,South,180,3.0,3.0,80,0.00,,,0.00,,2013-07-26 18:32:00,
2013-07-26 11:52:00,57.0,51.0,30.11,SW,225,6.0,6.0,80,0.00,,,0.00,,2013-07-26 18:52:00,
2013-07-26 12:02:00,57.0,51.0,30.08,SW,225,6.0,6.0,79,0.00,,,0.00,,2013-07-26 19:02:00,
2013-07-26 12:43:00,57.0,51.0,30.08,South,180,4.0,11.0,79,0.00,,,0.00,,2013-07-26 19:43:00,
2013-07-26 12:52:00,57.0,51.0,30.08,SW,225,5.0,5.0,79,0.00,,,0.00,,2013-07-26 19:52:00,
2013-07-26 13:32:00,57.0,50.0,30.05,SW,225,6.0,6.0,78,0.00,,,0.00,,2013-07-26 20:32:00,
2013-07-26 15:32:00,58.0,50.0,30.05,SSW,203,8.0,8.0,76,0.00,,,0.00,,2013-07-26 22:32:00,
2013-07-26 15:43:00,58.0,50.0,30.05,SW,225,11.0,11.0,76,0.00,,,0.00,,2013-07-26 22:43:00,
2013-07-26 15:53:00,58.0,50.0,30.05,SW,225,5.0,6.0,76,0.00,,,0.00,,2013-07-26 22:53:00,
2013-07-26 16:02:00,57.0,50.0,30.05,West,270,9.0,9.0,78,0.00,,,0.00,,2013-07-26 23:02:00,
2013-07-26 16:11:00,57.0,51.0,30.05,West,270,9.0,9.0,79,0.00,,,0.00,,2013-07-26 23:11:00,
2013-07-26 16:52:00,57.0,51.0,30.02,SW,225,12.0,12.0,80,0.00,,,0.00,,2013-07-26 23:52:00,
2013-07-26 17:32:00,57.0,51.0,30.02,WSW,248,10.0,10.0,79,0.00,,,0.00,,2013-07-27 00:32:00,
2013-07-26 17:42:00,57.0,51.0,30.02,WSW,248,10.0,10.0,79,0.00,,,0.00,,2013-07-27 00:42:00,
2013-07-26 17:53:00,56.0,50.0,30.02,SSW,203,9.0,10.0,80,0.00,,,0.00,,2013-07-27 00:53:00,
2013-07-26 18:01:00,56.0,50.0,30.02,SW,225,6.0,6.0,80,0.00,,,0.00,,2013-07-27 01:01:00,
2013-07-26 18:11:00,56.0,50.0,30.02,SSW,203,8.0,8.0,80,0.00,,,0.00,,2013-07-27 01:11:00,
2013-07-26 18:32:00,56.0,51.0,30.02,WSW,248,8.0,8.0,82,0.00,,,0.00,,2013-07-27 01:32:00,
2013-07-26 18:43:00,56.0,51.0,30.02,SW,225,4.0,6.0,82,0.00,,,0.00,,2013-07-27 01:43:00,
2013-07-26 18:53:00,55.0,50.0,30.02,WSW,248,6.0,6.0,83,0.00,,,0.00,,2013-07-27 01:53:00,
2013-07-26 19:02:00,55.0,50.0,30.02,SSW,203,5.0,6.0,83,0.00,,,0.00,,2013-07-27 02:02:00,
2013-07-26 19:32:00,55.0,51.0,30.02,WSW,248,3.0,4.0,86,0.00,,,0.00,,2013-07-27 02:32:00,
2013-07-26 19:52:00,54.0,50.0,30.02,SW,225,5.0,9.0,87,0.00,,,0.00,,2013-07-27 02:52:00,
2013-07-26 20:02:00,54.0,50.0,30.02,WSW,248,6.0,6.0,87,0.00,,,0.00,,2013-07-27 03:02:00,
2013-07-26 20:11:00,54.0,50.0,30.02,South,180,6.0,6.0,87,0.00,,,0.00,,2013-07-27 03:11:00,
2013-07-26 20:43:00,54.0,51.0,30.02,SW,225,5.0,5.0,89,0.00,,,0.00,,2013-07-27 03:43:00,
2013-07-26 20:52:00,54.0,51.0,30.02,SW,225,3.0,5.0,89,0.00,,,0.00,,2013-07-27 03:52:00,
2013-07-26 21:02:00,54.0,51.0,30.02,SW,225,4.0,4.0,89,0.00,,,0.00,,2013-07-27 04:02:00,
2013-07-26 21:11:00,53.0,50.0,30.02,SW,225,5.0,6.0,90,0.00,,,0.00,,2013-07-27 04:11:00,
2013-07-26 21:32:00,53.0,50.0,30.02,SW,225,5.0,5.0,90,0.00,,,0.00,,2013-07-27 04:32:00,
2013-07-26 21:43:00,53.0,50.0,30.02,SW,225,5.0,6.0,90,0.00,,,0.00,,2013-07-27 04:43:00,
2013-07-26 21:53:00,53.0,50.0,30.05,SSW,203,6.0,6.0,90,0.00,,,0.00,,2013-07-27 04:53:00,
2013-07-26 22:01:00,53.0,50.0,30.05,West,270,6.0,6.0,91,0.00,,,0.00,,2013-07-27 05:01:00,
2013-07-26 22:12:00,53.0,50.0,30.05,South,180,1.0,5.0,91,0.00,,,0.00,,2013-07-27 05:12:00,
2013-07-26 22:32:00,53.0,50.0,30.05,SW,225,7.0,7.0,91,0.00,,,0.00,,2013-07-27 05:32:00,
2013-07-26 22:43:00,53.0,51.0,30.05,SW,225,6.0,7.0,92,0.00,,,0.00,,2013-07-27 05:43:00,
2013-07-26 22:52:00,53.0,51.0,30.05,West,270,6.0,8.0,92,0.00,,,0.00,,2013-07-27 05:52:00,
2013-07-26 23:01:00,53.0,51.0,30.05,SSE,158,6.0,6.0,92,0.00,,,0.00,,2013-07-27 06:01:00,
2013-07-26 23:43:00,53.0,51.0,30.05,SW,225,9.0,9.0,93,0.00,,,0.00,,2013-07-27 06:43:00,